Regional Weather Roundup
Issued by NWS

Home | Current Version | Previous Version | Graphics & Text | Print | Product List | Glossary On
Versions: 1 2 3 4 5 6 7 8 9 10 11 12 13 14 15 16 17 18 19 20 21 22 23 24 25 26 27 28 29 30 31 32 33 34 35 36 37 38 39 40 41 42 43 44 45 46 47 48 49 50
000
ASUS43 KTOP 271708
RWRKS

WEATHER ROUNDUP FOR KANSAS
NATIONAL WEATHER SERVICE GOODLAND KS
1100 AM CST THU NOV 27 2014

NOTE:  "FAIR" INDICATES FEW OR NO CLOUDS BELOW 12,000 FEET WITH NO
SIGNIFICANT WEATHER AND/OR OBSTRUCTIONS TO VISIBILITY.

KSZ001>006-013>018-027>032-041>047-271800-
NORTHWEST KANSAS

CITY           SKY/WX    TMP DP  RH WIND       PRES   REMARKS
GOODLAND       SUNNY     49  31  49 SW15      30.23F
HAYS           SUNNY     37  18  44 S15G24    30.38F WCI  28
HILL CITY      SUNNY     39  20  46 S16G23    30.34F WCI  30
RUSSELL        SUNNY     36  19  50 S15       30.40F WCI  27
$$

KSZ061>065-074>080-084>089-271800-
SOUTHWEST KANSAS

CITY           SKY/WX    TMP DP  RH WIND       PRES   REMARKS
DODGE CITY     SUNNY     41  19  41 S24G32    30.37F
ELKHART          N/A     48  27  44 SW13        N/A
GARDEN CITY    SUNNY     44  21  40 S21G30    30.31F
GREAT BEND     SUNNY     37  18  44 S18       30.42F WCI  27
LIBERAL        MOSUNNY   41  23  48 S21       30.37F
PRATT          SUNNY     36  19  51 S15       30.45F WCI  26
$$

KSZ066>073-081>083-090>101-271800-
SOUTHEAST KANSAS

CITY           SKY/WX    TMP DP  RH WIND       PRES   REMARKS
CHANUTE        SUNNY     32  23  69 CALM      30.54F
COFFEYVILLE    SUNNY     32  23  69 S3        30.56F
HUTCHINSON     SUNNY     35  19  52 S9        30.48F
MEDICINE LODGE   N/A     36  21  54 S13G20    30.48F WCI  27
NEWTON         SUNNY     34  19  55 S7        30.50F
PARSONS        SUNNY     33  24  69 VRB3      30.56S
WICHITA INTL   MOSUNNY   36  20  52 SE10      30.50F WCI  28
WICHITA JABRA  SUNNY     34  21  59 S6        30.50F
WICHITA MCCONL SUNNY     36  20  53 S6        30.50F
WINFIELD       SUNNY     37  24  59 S7        30.54S
$$

KSZ007>012-019>026-033>040-048>060-102>105-271800-
NORTHEAST KANSAS

CITY           SKY/WX    TMP DP  RH WIND       PRES   REMARKS
CONCORDIA      SUNNY     27  15  61 VRB6      30.47F
EMPORIA        SUNNY     30  21  69 CALM      30.52R
LAWRENCE       MOSUNNY   29  20  69 CALM      30.55F HAZE
MANHATTAN      SUNNY     27  20  75 VRB3      30.53F
MARYSVILLE     SUNNY     28  19  69 S3        30.50F
OLATHE IND     MOSUNNY   29  21  72 CALM      30.54R
OLATHE EXE     CLOUDY    29  20  69 CALM      30.52S
SALINA         SUNNY     31  18  58 SE6       30.51S
TOPEKA BILLARD SUNNY     32  21  64 NE3       30.55S
TOPEKA FORBES  SUNNY     31  20  63 CALM      30.53S
$$



USA.gov is the U.S. government's official web portal to all federal, state and local government web resources and services.